Change the Weather History Date:

Wednesday, October 2, 2013

  Actual Average Record
Temperature  
Mean Temperature 82 °F 72 °F  
Max Temperature 90 °F 84 °F 96 °F (1938)
Min Temperature 73 °F 60 °F 42 °F (1984)
Degree Days  
Heating Degree Days 0 1  
Month to date heating degree days 0 2  
Since 1 July heating degree days 0 6  
Cooling Degree Days 17 8  
Month to date cooling degree days 33 16  
Year to date cooling degree days 2666 2413  
Growing Degree Days 31 (Base 50)    
Moisture  
Dew Point 71 °F    
Average Humidity 73    
Maximum Humidity 94    
Minimum Humidity 52    
Precipitation  
Precipitation 0.00 in 0.13 in 1.47 in (2004)
Month to date precipitation 0.02 0.24  
Year to date precipitation 30.27 34.91  
Snow  
Snow 0.00 in - - ()
Month to date snowfall 0.0  
Since 1 July snowfall 0.0  
Since 1 September snowfall 0.0  
Snow Depth 0.00 in    
Sea Level Pressure  
Sea Level Pressure 29.97 in    
Wind  
Wind Speed 6 mph (SE)    
Max Wind Speed 12 mph    
Max Gust Speed 16 mph    
Visibility 10 miles    
Events Thunderstorm    
T = Trace of Precipitation, MM = Missing Value Source: NWS Daily Summary

Daily Weather History Graph

Daily Weather History Graph

Search for Another Location

Airport or City:

Trip Planner

Search our weather history database for the weather conditions in past years. The results will help you decide how hot, cold, wet, or windy it might be!

Date:

Astronomy

Oct. 02, 2013 Rise Set
Actual Time 7:13 AM CDT 7:02 PM CDT
Civil Twilight 6:49 AM CDT 7:26 PM CDT
Nautical Twilight 6:21 AM CDT 7:54 PM CDT
Astronomical Twilight 5:53 AM CDT 8:22 PM CDT
Moon 4:54 AM CDT (10/2) 5:33 PM CDT (10/2)
Length of Visible Light 12h 37m
Length of Day
11h 48m
Waning Crescent, 6% of the Moon is Illuminated
Oct 2
Waning Crescent
Oct 4
New
Oct 11
First Quarter
Oct 18
Full
Oct 26
Last Quarter

Hourly Weather History & Observations

Time (CDT) Temp. Heat Index Dew Point Humidity Pressure Visibility Wind Dir Wind Speed Gust Speed Precip Events Conditions
12:53 AM 73.0 °F - 70.0 °F 90% 29.96 in 10.0 mi Calm Calm - N/A   Partly Cloudy
1:53 AM 73.0 °F - 71.1 °F 93% 29.96 in 10.0 mi SE 4.6 mph - N/A   Partly Cloudy
2:19 AM 75.2 °F - 71.6 °F 89% 29.98 in 10.0 mi ESE 6.9 mph - N/A   Mostly Cloudy
2:53 AM 73.9 °F - 71.1 °F 91% 29.96 in 10.0 mi ESE 5.8 mph - N/A   Scattered Clouds
3:01 AM 73.4 °F - 71.6 °F 94% 29.98 in 10.0 mi ESE 5.8 mph - N/A   Mostly Cloudy
3:16 AM 73.4 °F - 71.6 °F 94% 29.97 in 10.0 mi ESE 5.8 mph - N/A   Scattered Clouds
3:27 AM 73.4 °F - 71.6 °F 94% 29.97 in 10.0 mi ESE 5.8 mph - N/A   Scattered Clouds
3:32 AM 73.4 °F - 71.6 °F 94% 29.97 in 10.0 mi ESE 5.8 mph - N/A   Mostly Cloudy
3:53 AM 75.0 °F - 72.0 °F 90% 29.96 in 10.0 mi ESE 8.1 mph - N/A   Overcast
4:01 AM 75.2 °F - 71.6 °F 89% 29.97 in 10.0 mi SE 6.9 mph - N/A   Overcast
4:53 AM 75.0 °F - 72.0 °F 90% 29.96 in 7.0 mi SE 6.9 mph - N/A   Overcast
5:36 AM 75.2 °F - 71.6 °F 89% 29.97 in 8.0 mi ESE 5.8 mph - N/A   Overcast
5:53 AM 75.0 °F - 72.0 °F 90% 29.96 in 9.0 mi ESE 5.8 mph - N/A   Overcast
6:53 AM 75.0 °F - 72.0 °F 90% 29.98 in 8.0 mi East 3.5 mph - N/A   Overcast
7:53 AM 75.9 °F - 73.0 °F 91% 29.99 in 6.0 mi ESE 4.6 mph - N/A   Overcast
8:53 AM 77.0 °F - 73.0 °F 88% 30.00 in 10.0 mi ESE 6.9 mph - N/A   Overcast
9:53 AM 78.1 °F - 73.0 °F 84% 30.01 in 9.0 mi ESE 5.8 mph - N/A   Overcast
10:16 AM 80.6 °F 85.4 °F 73.4 °F 79% 30.02 in 10.0 mi ESE 8.1 mph - N/A   Overcast
10:41 AM 80.6 °F 85.4 °F 73.4 °F 79% 30.02 in 10.0 mi Variable 5.8 mph - N/A   Overcast
10:53 AM 82.9 °F 88.8 °F 73.0 °F 72% 30.01 in 10.0 mi SE 8.1 mph - N/A   Mostly Cloudy
11:25 AM 82.4 °F 87.2 °F 71.6 °F 70% 30.02 in 10.0 mi SSE 5.8 mph - N/A   Mostly Cloudy
11:39 AM 84.2 °F 89.6 °F 71.6 °F 66% 30.02 in 10.0 mi SE 9.2 mph - N/A   Mostly Cloudy
11:53 AM 84.0 °F 89.0 °F 71.1 °F 65% 30.01 in 10.0 mi East 6.9 mph - N/A   Mostly Cloudy
12:44 PM 86.0 °F 91.8 °F 71.6 °F 62% 30.00 in 10.0 mi SE 10.4 mph - N/A   Scattered Clouds
12:53 PM 86.0 °F 91.5 °F 71.1 °F 61% 29.99 in 10.0 mi ESE 11.5 mph 16.1 mph N/A   Partly Cloudy
1:53 PM 89.1 °F 95.0 °F 71.1 °F 55% 29.95 in 10.0 mi SE 6.9 mph - N/A   Scattered Clouds
2:53 PM 89.1 °F 94.1 °F 70.0 °F 53% 29.94 in 10.0 mi SSE 8.1 mph - N/A   Scattered Clouds
3:53 PM 88.0 °F 92.1 °F 69.1 °F 53% 29.93 in 10.0 mi SSE 9.2 mph - N/A   Scattered Clouds
4:53 PM 88.0 °F 92.9 °F 70.0 °F 55% 29.91 in 10.0 mi SSE 6.9 mph - N/A   Clear
5:37 PM 87.8 °F 92.6 °F 69.8 °F 55% 29.92 in 10.0 mi ESE 8.1 mph - N/A Thunderstorm Clear
5:53 PM 86.0 °F 90.7 °F 70.0 °F 59% 29.91 in 10.0 mi SSE 4.6 mph - N/A   Clear
6:53 PM 82.0 °F 86.7 °F 72.0 °F 71% 29.91 in 10.0 mi Calm Calm - N/A   Clear
7:53 PM 79.0 °F - 73.0 °F 82% 29.92 in 10.0 mi SE 3.5 mph - N/A   Partly Cloudy
8:53 PM 78.1 °F - 72.0 °F 81% 29.94 in 10.0 mi SSE 4.6 mph - N/A   Clear
9:53 PM 77.0 °F - 70.0 °F 79% 29.95 in 10.0 mi SE 4.6 mph - N/A   Clear
10:53 PM 75.0 °F - 70.0 °F 84% 29.95 in 10.0 mi SE 4.6 mph - N/A   Clear
11:53 PM 75.0 °F - 71.1 °F 87% 29.95 in 10.0 mi SE 3.5 mph - N/A   Clear